This is the latest recevied weather packets stored in our database for station/object W4ZHA. If no packets are shown the sender has not sent any weather packets the latest 10 day(s).
| Time | Temp. | Humidity | Pressure | Rain* | Wind** | Luminosity | Snow |
|---|---|---|---|---|---|---|---|
| 1777483020 | 25° C | 64% | 1012 hPa | 0 mm | - | 534 W/m² | - |
| 1777482717 | 24.44° C | 66% | 1012 hPa | 0 mm | - | 519 W/m² | - |
| 1777482413 | 24.44° C | 65% | 1012.3 hPa | 0 mm | - | 481 W/m² | - |
| 1777482111 | 24.44° C | 66% | 1012.3 hPa | 0 mm | - | 473 W/m² | - |
| 1777481809 | 24.44° C | 66% | 1012.3 hPa | 0 mm | - | 466 W/m² | - |
| 1777481505 | 23.89° C | 67% | 1012.7 hPa | 0 mm | - | 499 W/m² | - |
| 1777481202 | 23.89° C | 66% | 1012.7 hPa | 0 mm | - | 483 W/m² | - |
| 1777480899 | 23.33° C | 68% | 1013 hPa | 0 mm | - | 506 W/m² | - |
| 1777480595 | 23.33° C | 68% | 1013 hPa | 0 mm | - | 199 W/m² | - |
| 1777480292 | 23.33° C | 67% | 1013 hPa | 0 mm | - | 185 W/m² | - |
| 1777479988 | 23.89° C | 66% | 1013 hPa | 0 mm | - | 563 W/m² | - |
| 1777479685 | 23.33° C | 68% | 1013 hPa | 0 mm | - | 295 W/m² | - |
| 1777479384 | 23.89° C | 67% | 1012.7 hPa | 0 mm | - | 283 W/m² | - |
| 1777479079 | 23.33° C | 67% | 1012.7 hPa | 0 mm | - | 233 W/m² | - |
| 1777478776 | 24.44° C | 66% | 1012.7 hPa | 0 mm | - | 188 W/m² | - |
| 1777478472 | 22.78° C | 65% | 1013 hPa | 0 mm | - | 398 W/m² | - |
| 1777478170 | 22.78° C | 66% | 1013 hPa | 0 mm | - | 275 W/m² | - |
| 1777477865 | 22.78° C | 66% | 1012.7 hPa | 0 mm | - | 240 W/m² | - |
| 1777477561 | 22.22° C | 67% | 1013.4 hPa | 0 mm | - | 159 W/m² | - |
| 1777477258 | 22.78° C | 66% | 1013.4 hPa | 0 mm | - | 146 W/m² | - |
| 1777476954 | 22.78° C | 65% | 1013.4 hPa | 0 mm | - | 479 W/m² | - |
| 1777476652 | 22.78° C | 67% | 1013.8 hPa | 0 mm | - | 394 W/m² | - |
| 1777476348 | 22.22° C | 67% | 1013.4 hPa | 0 mm | - | 145 W/m² | - |
| 1777476044 | 21.67° C | 70% | 1013.4 hPa | 0 mm | - | 125 W/m² | - |
| 1777475740 | 21.67° C | 69% | 1013.4 hPa | 0 mm | - | 118 W/m² | - |
* Rain latest hour (hover to see other rain measurements)
** Current wind speed in m/s (hover to see current wind gust speed)